SL-16 DEB, 39725

Orbit data source: Space-Track

SL-16 DEB, 39725 is space debris in LEO originally from a launch on Fri, 25 Dec 1992 UTC launched from the Tyuratam Missile And Space Complex (TTMTR). Debris objects in space refer to the collection of defunct objects orbiting the Earth. Examples of debris include non-operational satellites, rocket bodies, and fragments generated from explosions, collisions, or faulty payload assembly.

Loading next visibility...
Identifier
39725, 1992-093KR
Orbit
LEO
Country
Flag of CISCIS
Related business
Manufacturer
Unknown
Mission
Spacecraft
Bus & Motor
Unknown
Mass
Unknown
Launch date (UTC)
1992-12-25 (33 years ago)
Launch vehicle
Unknown
Launch site
Tyuratam Missile And Space Complex (TTMTR)
Object type
Payload
Rocket body
Debris
Shape & HBR
Unknown shape, 0.1 m
Radar Cross Section
Small (<0.1 m²)

Expand to show TLE details & history
Last TLE update: 2 months ago

TLE from 2 months ago
0 SL-16 DEB
1 39725U 92093KR  25287.69203973  .00002727  00000-0  13087-2 0  9991
2 39725  71.1744 275.9156 0086873 276.4741  82.6499 14.17825974592080
Epoch: 2025-10-14T16:36Z
TLE epoch observation values (Epoch: 2025-10-14T16:36:32.232Z)
Latitude
0.00002°
Longitude
3.30448°
Altitude
827.651 km
Speed
7.443 km/s
True Right ascension
18h 23m 39s
True Declination
0° 00' 00"
Sunlit
Object was in daylight at epoch
Visualization orbit readout
Latitude
Unknown
Longitude
Unknown
Altitude
Unknown
Speed
Unknown
Apparent Right ascension
Unknown
Apparent Declination
Unknown
Sunlit
N/A
Visualization observer readout
Local Sidereal Time
15:12:31
Azimuth
Unknown
Elevation
Unknown
Doppler factor
Unknown
Orbital elements
Apogee altitude
893.244 km
Perigee altitude
767.995 km
Semi-major axis
7,208.756 km
Eccentricity
0.00869
Inclination
71.1744°
RAAN
275.9156°
Arg. of periapsis
276.4741°
True anomaly
83.63854°
Mean anomaly
82.6499°
Eccentric anomaly
83.14409°
Mean motion
3.54611 °/min
Orbital period
101.52 mins
BSTAR
0.0013087
Loading maneuver chart data...
Computing Atmospheric mass density...
Loading historical data...
Loading historical data...
Loading historical data...
Loading historical data...
Loading historical data...
Loading historical data...
Loading historical data...

Documentation

Showing up to 5 results
|